Location: Treviso
(45.6669°N, 12.2430°E)
Time: 11:33:12
(UTC+01:00)

ISS - Pass Details

Date: 26 March 2023
Orbit: 414 x 423 km, 51.6° (Epoch: 20 March)

Event Time Altitude Azimuth Distance (km) Brightness Sun altitude
Rises 21:18:05 0° 297° (WNW) 2,360 1.7 -18.9°
Reaches altitude 10° 21:20:16 10° 305° (NW) 1,494 0.2 -19.2°
Maximum altitude 21:23:26 39° 16° (NNE) 635 -2.9 -19.7°
Enters shadow 21:23:40 39° 28° (NNE) 642 -2.9 -19.8°
